Year,Month,Day,Hour,Minute,Value (Times are PST for temperature in C)
2013,07,26,10,02,19.30
2013,07,26,10,03,19.30
2013,07,26,10,04,19.30
2013,07,26,10,05,19.40
2013,07,26,10,06,19.40
2013,07,26,10,07,19.40
2013,07,26,10,08,19.30
2013,07,26,10,09,19.40
2013,07,26,10,10,19.50
2013,07,26,10,11,19.60
2013,07,26,10,12,19.60
2013,07,26,10,13,19.50
2013,07,26,10,14,19.60
2013,07,26,10,15,19.60
2013,07,26,10,16,19.60
2013,07,26,10,17,19.60
2013,07,26,10,18,19.60
2013,07,26,10,19,19.60
2013,07,26,10,20,19.70
2013,07,26,10,21,19.70
2013,07,26,10,22,19.70
2013,07,26,10,23,19.70
2013,07,26,10,24,19.70
2013,07,26,10,25,19.70
2013,07,26,10,26,19.70
2013,07,26,10,27,19.70
2013,07,26,10,28,19.70
2013,07,26,10,29,19.70
2013,07,26,10,30,19.80
2013,07,26,10,31,19.80
2013,07,26,10,32,19.90
2013,07,26,10,33,19.90
2013,07,26,10,34,20.00
2013,07,26,10,35,20.10
2013,07,26,10,36,20.10
2013,07,26,10,37,20.10
2013,07,26,10,38,20.00
2013,07,26,10,39,19.90
2013,07,26,10,40,20.00
2013,07,26,10,41,20.10
2013,07,26,10,42,20.20
2013,07,26,10,43,20.30
2013,07,26,10,44,20.30
2013,07,26,10,45,20.30
2013,07,26,10,46,20.30
2013,07,26,10,47,20.20
2013,07,26,10,48,20.20
2013,07,26,10,49,20.20
2013,07,26,10,50,20.30
2013,07,26,10,51,20.40
2013,07,26,10,52,20.40
2013,07,26,10,53,20.50
2013,07,26,10,54,20.60
2013,07,26,10,55,20.70
2013,07,26,10,56,20.70
2013,07,26,10,57,20.70
2013,07,26,10,58,20.60
2013,07,26,10,59,20.50
2013,07,26,11,00,20.50
2013,07,26,11,01,20.40
2013,07,26,11,02,20.40
2013,07,26,11,03,20.40
2013,07,26,11,04,20.40
2013,07,26,11,05,20.40
2013,07,26,11,06,20.40
2013,07,26,11,07,20.40
2013,07,26,11,08,20.30
2013,07,26,11,09,20.30
2013,07,26,11,10,20.40
2013,07,26,11,11,20.40
2013,07,26,11,12,20.50
2013,07,26,11,13,20.40
2013,07,26,11,14,20.40
2013,07,26,11,15,20.40
2013,07,26,11,16,20.40
2013,07,26,11,17,20.40
2013,07,26,11,18,20.40
2013,07,26,11,19,20.40
2013,07,26,11,20,20.40
2013,07,26,11,21,20.50
2013,07,26,11,22,20.60
2013,07,26,11,23,20.60
2013,07,26,11,24,20.60
2013,07,26,11,25,20.60
2013,07,26,11,26,20.60
2013,07,26,11,27,20.50
2013,07,26,11,28,20.60
2013,07,26,11,29,20.60
2013,07,26,11,30,20.60
2013,07,26,11,31,20.70
2013,07,26,11,32,20.70
2013,07,26,11,33,20.80
2013,07,26,11,34,20.80
2013,07,26,11,35,20.70
2013,07,26,11,36,20.70
2013,07,26,11,37,20.70
2013,07,26,11,38,20.60
2013,07,26,11,39,20.60
2013,07,26,11,40,20.70
2013,07,26,11,41,20.80
2013,07,26,11,42,20.80
2013,07,26,11,43,20.80
2013,07,26,11,44,20.80
2013,07,26,11,45,20.70
2013,07,26,11,46,20.70
2013,07,26,11,47,20.60
2013,07,26,11,48,20.60
2013,07,26,11,49,20.60
2013,07,26,11,50,20.60
2013,07,26,11,51,20.70
2013,07,26,11,52,20.70
2013,07,26,11,53,20.80
2013,07,26,11,54,20.80
2013,07,26,11,55,20.80
2013,07,26,11,56,20.90
2013,07,26,11,57,20.90
2013,07,26,11,58,20.90
2013,07,26,11,59,20.90
2013,07,26,12,00,21.00
2013,07,26,12,01,21.00
2013,07,26,12,02,21.10
2013,07,26,12,03,21.20
2013,07,26,12,04,21.20
2013,07,26,12,05,21.20
2013,07,26,12,06,21.20
2013,07,26,12,07,21.20
2013,07,26,12,08,21.10
2013,07,26,12,09,21.10
2013,07,26,12,10,21.20
2013,07,26,12,11,21.20
2013,07,26,12,12,21.30
2013,07,26,12,13,21.30
2013,07,26,12,14,21.30
2013,07,26,12,15,21.30
2013,07,26,12,16,21.40
2013,07,26,12,17,21.40
2013,07,26,12,18,21.50
2013,07,26,12,19,21.60
2013,07,26,12,20,21.60
2013,07,26,12,21,21.40
2013,07,26,12,22,21.50
2013,07,26,12,23,21.60
2013,07,26,12,24,21.70
2013,07,26,12,25,21.90
2013,07,26,12,26,22.10
2013,07,26,12,27,22.20
2013,07,26,12,28,22.20
2013,07,26,12,29,22.40
2013,07,26,12,30,22.30
2013,07,26,12,31,22.30
2013,07,26,12,32,22.20
2013,07,26,12,33,22.20
2013,07,26,12,34,22.30
2013,07,26,12,35,22.40
2013,07,26,12,36,22.40
2013,07,26,12,37,22.40
2013,07,26,12,38,22.50
2013,07,26,12,39,22.50
2013,07,26,12,40,22.50
2013,07,26,12,41,22.50
2013,07,26,12,42,22.40
2013,07,26,12,43,22.30
2013,07,26,12,44,22.20
2013,07,26,12,45,22.20
2013,07,26,12,46,22.10
2013,07,26,12,47,22.00
2013,07,26,12,48,21.90
2013,07,26,12,49,21.90
2013,07,26,12,50,21.80
2013,07,26,12,51,21.70
2013,07,26,12,52,21.60
2013,07,26,12,53,21.70
2013,07,26,12,54,21.70
2013,07,26,12,55,21.80
2013,07,26,12,56,21.90
2013,07,26,12,57,21.90
2013,07,26,12,58,21.90
2013,07,26,12,59,21.90
2013,07,26,13,00,21.90
2013,07,26,13,01,22.00
2013,07,26,13,02,22.00
2013,07,26,13,03,22.00
2013,07,26,13,04,22.00
2013,07,26,13,05,21.90
2013,07,26,13,06,21.90
2013,07,26,13,07,22.10
2013,07,26,13,08,22.20
2013,07,26,13,09,22.30
2013,07,26,13,10,22.20
2013,07,26,13,11,22.20
2013,07,26,13,12,22.20
2013,07,26,13,13,22.10
2013,07,26,13,14,22.00
2013,07,26,13,15,22.10
2013,07,26,13,16,22.20
2013,07,26,13,17,22.20
2013,07,26,13,18,22.20
2013,07,26,13,19,22.10
2013,07,26,13,20,22.10
2013,07,26,13,21,22.00
2013,07,26,13,22,21.90
2013,07,26,13,23,21.80
2013,07,26,13,24,21.70
2013,07,26,13,25,21.70
2013,07,26,13,26,21.80
2013,07,26,13,27,21.70
2013,07,26,13,28,21.70
2013,07,26,13,29,21.60
2013,07,26,13,30,21.60
2013,07,26,13,31,21.60
2013,07,26,13,32,21.70
2013,07,26,13,33,21.80
2013,07,26,13,34,21.80
2013,07,26,13,35,21.80
2013,07,26,13,36,21.90
2013,07,26,13,37,21.90
2013,07,26,13,38,21.90
2013,07,26,13,39,21.90
2013,07,26,13,40,21.90
2013,07,26,13,41,22.00
2013,07,26,13,42,22.00
2013,07,26,13,43,22.10
2013,07,26,13,44,22.20
2013,07,26,13,45,22.30
2013,07,26,13,46,22.30
2013,07,26,13,47,22.40
2013,07,26,13,48,22.50
2013,07,26,13,49,22.60
2013,07,26,13,50,22.70
2013,07,26,13,51,22.80
2013,07,26,13,52,23.00
2013,07,26,13,53,23.20
2013,07,26,13,54,23.30
2013,07,26,13,55,23.40
2013,07,26,13,56,23.50
2013,07,26,13,57,23.70
2013,07,26,13,58,23.70
2013,07,26,13,59,23.80
2013,07,26,14,00,23.80
2013,07,26,14,01,23.70
2013,07,26,14,02,23.70
2013,07,26,14,03,23.70
2013,07,26,14,04,23.70
2013,07,26,14,05,23.70
2013,07,26,14,06,23.80
2013,07,26,14,07,23.80
2013,07,26,14,08,23.80
2013,07,26,14,09,23.70
2013,07,26,14,10,23.70
2013,07,26,14,11,23.50
2013,07,26,14,12,23.40
2013,07,26,14,13,23.30
2013,07,26,14,14,23.20
2013,07,26,14,15,23.10
2013,07,26,14,16,23.10
2013,07,26,14,17,23.20
2013,07,26,14,18,23.20
2013,07,26,14,19,23.10
2013,07,26,14,20,23.10
2013,07,26,14,21,23.00
2013,07,26,14,22,22.90
2013,07,26,14,23,22.90
2013,07,26,14,24,22.90
2013,07,26,14,25,22.90
2013,07,26,14,26,22.90
2013,07,26,14,27,22.80
2013,07,26,14,28,22.80
2013,07,26,14,29,22.80
2013,07,26,14,30,22.80
2013,07,26,14,31,22.80
2013,07,26,14,32,22.60
2013,07,26,14,33,22.50
2013,07,26,14,34,22.50
2013,07,26,14,35,22.50
2013,07,26,14,36,22.50
2013,07,26,14,37,22.70
2013,07,26,14,38,22.80
2013,07,26,14,39,22.80
2013,07,26,14,40,22.90
2013,07,26,14,41,22.90
2013,07,26,14,42,22.90
2013,07,26,14,43,22.90
2013,07,26,14,44,22.90
2013,07,26,14,45,23.00
2013,07,26,14,46,23.10
2013,07,26,14,47,23.10
2013,07,26,14,48,23.10
2013,07,26,14,49,23.10
2013,07,26,14,50,23.10
2013,07,26,14,51,23.20
2013,07,26,14,52,23.30
2013,07,26,14,53,23.30
2013,07,26,14,54,23.50
2013,07,26,14,55,23.70
2013,07,26,14,56,23.80
2013,07,26,14,57,23.70
2013,07,26,14,58,23.70
2013,07,26,14,59,23.60
2013,07,26,15,00,23.50
2013,07,26,15,01,23.40
2013,07,26,15,02,23.40
2013,07,26,15,03,23.40
2013,07,26,15,04,23.30
2013,07,26,15,05,23.30
2013,07,26,15,06,23.20
2013,07,26,15,07,23.10
2013,07,26,15,08,23.10
2013,07,26,15,09,23.10
2013,07,26,15,10,23.10
2013,07,26,15,11,23.10
2013,07,26,15,12,23.30
2013,07,26,15,13,23.30
2013,07,26,15,14,23.40
2013,07,26,15,15,23.60
2013,07,26,15,16,23.70
2013,07,26,15,17,23.70
2013,07,26,15,18,23.80
2013,07,26,15,19,23.80
2013,07,26,15,20,23.80
2013,07,26,15,21,23.90
2013,07,26,15,22,23.90
2013,07,26,15,23,24.00
2013,07,26,15,24,24.10
2013,07,26,15,25,24.10
2013,07,26,15,26,24.20
2013,07,26,15,27,24.30
2013,07,26,15,28,24.40
2013,07,26,15,29,24.50
2013,07,26,15,30,24.70
2013,07,26,15,31,24.80
2013,07,26,15,32,24.90
2013,07,26,15,33,24.80
2013,07,26,15,34,24.80
2013,07,26,15,35,24.80
2013,07,26,15,36,24.80
2013,07,26,15,37,24.70
2013,07,26,15,38,24.50
2013,07,26,15,39,24.40
2013,07,26,15,40,24.30
2013,07,26,15,41,24.20
2013,07,26,15,42,24.20
2013,07,26,15,43,24.10
2013,07,26,15,44,24.10
2013,07,26,15,45,24.00
2013,07,26,15,46,23.90
2013,07,26,15,47,23.90
2013,07,26,15,48,23.80
2013,07,26,15,49,23.80
2013,07,26,15,50,23.80
2013,07,26,15,51,23.70
2013,07,26,15,52,23.60
2013,07,26,15,53,23.60
2013,07,26,15,54,23.60
2013,07,26,15,55,23.50
2013,07,26,15,56,23.50
2013,07,26,15,57,23.60
2013,07,26,15,58,23.60
2013,07,26,15,59,23.60
2013,07,26,16,00,23.70
2013,07,26,16,01,23.70
2013,07,26,16,02,23.70
2013,07,26,16,03,23.70
2013,07,26,16,04,23.60
2013,07,26,16,05,23.50
2013,07,26,16,06,23.30
2013,07,26,16,07,23.20
2013,07,26,16,08,23.10
2013,07,26,16,09,22.90
2013,07,26,16,10,22.80
2013,07,26,16,11,22.80
2013,07,26,16,12,22.80
2013,07,26,16,13,22.80
2013,07,26,16,14,22.70
2013,07,26,16,15,22.60
2013,07,26,16,16,22.60
2013,07,26,16,17,22.60
2013,07,26,16,18,22.70
2013,07,26,16,19,22.90
2013,07,26,16,20,22.90
2013,07,26,16,21,23.00
2013,07,26,16,22,23.20
2013,07,26,16,23,23.30
2013,07,26,16,24,23.40
2013,07,26,16,25,23.50
2013,07,26,16,26,23.60
2013,07,26,16,27,23.70
2013,07,26,16,28,23.80
2013,07,26,16,29,23.90
2013,07,26,16,30,24.10
2013,07,26,16,31,24.20
2013,07,26,16,32,24.20
2013,07,26,16,33,24.20
2013,07,26,16,34,24.10
2013,07,26,16,35,23.90
2013,07,26,16,36,23.80
2013,07,26,16,37,23.70
2013,07,26,16,38,23.70
2013,07,26,16,39,23.70
2013,07,26,16,40,23.70
2013,07,26,16,41,23.70
2013,07,26,16,42,23.70
2013,07,26,16,43,23.80
2013,07,26,16,44,23.90
2013,07,26,16,45,24.00
2013,07,26,16,46,24.10
2013,07,26,16,47,24.10
2013,07,26,16,48,24.10
2013,07,26,16,49,24.10
2013,07,26,16,50,24.10
2013,07,26,16,51,24.10
2013,07,26,16,52,24.10
2013,07,26,16,53,24.10
2013,07,26,16,54,24.10
2013,07,26,16,55,24.10
2013,07,26,16,56,24.00
2013,07,26,16,57,24.10
2013,07,26,16,58,24.10
2013,07,26,16,59,24.10
2013,07,26,17,00,24.20
2013,07,26,17,01,24.40
2013,07,26,17,02,24.40
2013,07,26,17,03,24.40
2013,07,26,17,04,24.30
2013,07,26,17,05,24.10
2013,07,26,17,06,24.10
2013,07,26,17,07,24.00
2013,07,26,17,08,23.90
2013,07,26,17,09,23.90
2013,07,26,17,10,23.90
2013,07,26,17,11,24.00
2013,07,26,17,12,23.90
2013,07,26,17,13,23.90
2013,07,26,17,14,24.00
2013,07,26,17,15,24.00
2013,07,26,17,16,24.00
2013,07,26,17,17,24.10
2013,07,26,17,18,24.10
2013,07,26,17,19,24.20
2013,07,26,17,20,24.10
2013,07,26,17,21,24.00
2013,07,26,17,22,23.90
2013,07,26,17,23,23.80
2013,07,26,17,24,23.80
2013,07,26,17,25,23.70
2013,07,26,17,26,23.70
2013,07,26,17,27,23.70
2013,07,26,17,28,23.70
2013,07,26,17,29,23.90
2013,07,26,17,30,24.00
2013,07,26,17,31,24.10
2013,07,26,17,32,24.10
2013,07,26,17,33,24.10
2013,07,26,17,34,24.20
2013,07,26,17,35,24.20
2013,07,26,17,36,24.20
2013,07,26,17,37,24.10
2013,07,26,17,38,24.10
2013,07,26,17,39,23.90
2013,07,26,17,40,23.90
2013,07,26,17,41,24.00
2013,07,26,17,42,24.10
2013,07,26,17,43,24.10
2013,07,26,17,44,24.10
2013,07,26,17,45,24.10
2013,07,26,17,46,24.10
2013,07,26,17,47,24.10
2013,07,26,17,48,24.10
2013,07,26,17,49,24.10
2013,07,26,17,50,24.10
2013,07,26,17,51,24.10
2013,07,26,17,52,24.00
2013,07,26,17,53,23.90
2013,07,26,17,54,23.90
2013,07,26,17,55,23.80
2013,07,26,17,56,23.70
2013,07,26,17,57,23.70
2013,07,26,17,58,23.70
2013,07,26,17,59,23.70
2013,07,26,18,00,23.70
2013,07,26,18,01,23.70
2013,07,26,18,02,23.60
2013,07,26,18,03,23.60
2013,07,26,18,04,23.60
2013,07,26,18,05,23.50
2013,07,26,18,06,23.40
2013,07,26,18,07,23.40
2013,07,26,18,08,23.30
2013,07,26,18,09,23.30
2013,07,26,18,10,23.30
2013,07,26,18,11,23.30
2013,07,26,18,12,23.30
2013,07,26,18,13,23.30
2013,07,26,18,14,23.30
2013,07,26,18,15,23.30
2013,07,26,18,16,23.30
2013,07,26,18,17,23.30
2013,07,26,18,18,23.40
2013,07,26,18,19,23.40
2013,07,26,18,20,23.40
2013,07,26,18,21,23.40
2013,07,26,18,22,23.30
2013,07,26,18,23,23.30
2013,07,26,18,24,23.20
2013,07,26,18,25,23.10
2013,07,26,18,26,22.90
2013,07,26,18,27,22.80
2013,07,26,18,28,22.80
2013,07,26,18,29,22.70
2013,07,26,18,30,22.70
2013,07,26,18,31,22.60
2013,07,26,18,32,22.60
2013,07,26,18,33,22.60
2013,07,26,18,34,22.50
2013,07,26,18,35,22.40
2013,07,26,18,36,22.30
2013,07,26,18,37,22.20
2013,07,26,18,38,22.10
2013,07,26,18,39,22.10
2013,07,26,18,40,22.10
2013,07,26,18,41,22.10
2013,07,26,18,42,22.10
2013,07,26,18,43,22.10
2013,07,26,18,44,22.20
2013,07,26,18,45,22.20
2013,07,26,18,46,22.30
2013,07,26,18,47,22.30
2013,07,26,18,48,22.30
2013,07,26,18,49,22.20
2013,07,26,18,50,22.10
2013,07,26,18,51,22.00
2013,07,26,18,52,21.90
2013,07,26,18,53,21.90
2013,07,26,18,54,21.80
2013,07,26,18,55,21.80
2013,07,26,18,56,21.80
2013,07,26,18,57,21.90
2013,07,26,18,58,21.90
2013,07,26,18,59,21.90
2013,07,26,19,00,21.90
2013,07,26,19,01,21.90
2013,07,26,19,02,21.90
2013,07,26,19,03,21.90
2013,07,26,19,04,21.80
2013,07,26,19,05,21.60
2013,07,26,19,06,21.60
2013,07,26,19,07,21.50
2013,07,26,19,08,21.40
2013,07,26,19,09,21.30
2013,07,26,19,10,21.30
2013,07,26,19,11,21.30
2013,07,26,19,12,21.30
2013,07,26,19,13,21.20
2013,07,26,19,14,21.20
2013,07,26,19,15,21.10
2013,07,26,19,16,21.10
2013,07,26,19,17,21.10
2013,07,26,19,18,21.10
2013,07,26,19,19,21.10
2013,07,26,19,20,21.20
2013,07,26,19,21,21.30
2013,07,26,19,22,21.30
2013,07,26,19,23,21.30
2013,07,26,19,24,21.30
2013,07,26,19,25,21.30
2013,07,26,19,26,21.30
2013,07,26,19,27,21.30
2013,07,26,19,28,21.30
2013,07,26,19,29,21.30
2013,07,26,19,30,21.30
2013,07,26,19,31,21.40
2013,07,26,19,32,21.50
2013,07,26,19,33,21.60
2013,07,26,19,34,21.60
2013,07,26,19,35,21.60
2013,07,26,19,36,21.60
2013,07,26,19,37,21.60
2013,07,26,19,38,21.60
2013,07,26,19,39,21.60
2013,07,26,19,40,21.70
2013,07,26,19,41,21.70
2013,07,26,19,42,21.70
2013,07,26,19,43,21.70
2013,07,26,19,44,21.70
2013,07,26,19,45,21.70
2013,07,26,19,46,21.70
2013,07,26,19,47,21.70
2013,07,26,19,48,21.70
2013,07,26,19,49,21.70
2013,07,26,19,50,21.70
2013,07,26,19,51,21.70
2013,07,26,19,52,21.60
2013,07,26,19,53,21.60
2013,07,26,19,54,21.50
2013,07,26,19,55,21.40
2013,07,26,19,56,21.30
2013,07,26,19,57,21.20
2013,07,26,19,58,21.10
2013,07,26,19,59,21.00
2013,07,26,20,00,21.00
2013,07,26,20,01,20.90
2013,07,26,20,02,20.80
2013,07,26,20,03,20.80
2013,07,26,20,04,20.70
2013,07,26,20,05,20.60
2013,07,26,20,06,20.50
2013,07,26,20,07,20.50
2013,07,26,20,08,20.50
2013,07,26,20,09,20.40
2013,07,26,20,10,20.40
2013,07,26,20,11,20.40
2013,07,26,20,12,20.30
2013,07,26,20,13,20.30
2013,07,26,20,14,20.20
2013,07,26,20,15,20.20
2013,07,26,20,16,20.20
2013,07,26,20,17,20.20
2013,07,26,20,18,20.20
2013,07,26,20,19,20.20
2013,07,26,20,20,20.20
2013,07,26,20,21,20.20
2013,07,26,20,22,20.20
2013,07,26,20,23,20.20
2013,07,26,20,24,20.20
2013,07,26,20,25,20.20
2013,07,26,20,26,20.20
